Location: Napoli
(40.8639°N, 14.2562°E)
Time: 22:29:49
(UTC+02:00)

ISS - Visible Passes

Search period start: 27 July 2021 00:00
Search period end: 06 August 2021 00:00
Orbit: 419 x 421 km, 51.6° (Epoch: 27 July)

Date Brightness Start Highest point End Pass type
(mag) Time Alt. Az. Time Alt. Az. Time Alt. Az.
27 Jul -1.5 21:35:54 10° NNW 21:38:30 20° NNE 21:41:06 10° ENE visible
27 Jul -2.2 23:12:18 10° NW 23:14:22 34° NW 23:14:22 34° NW visible
28 Jul -1.3 20:48:44 10° NNW 20:51:00 17° NNE 20:53:16 10° NE visible
28 Jul -3.4 22:25:03 10° NW 22:28:23 56° NNE 22:28:40 54° ENE visible
29 Jul -2.6 21:37:50 10° NW 21:41:01 36° NNE 21:43:01 18° E visible
29 Jul -1.3 23:14:49 10° WNW 23:15:59 18° W 23:15:59 18° W visible
30 Jul -2.1 20:50:41 10° NW 20:53:36 26° NNE 20:56:31 10° E visible
30 Jul -3.2 22:27:18 10° WNW 22:30:23 48° SW 22:30:23 48° SW visible
31 Jul -3.8 21:39:57 10° NW 21:43:20 85° SW 21:44:51 30° SE visible
01 Aug -3.4 20:52:42 10° NW 20:56:03 57° NNE 20:59:22 10° ESE visible
01 Aug -1.5 22:30:21 10° W 22:32:21 16° SW 22:32:21 16° SW visible
02 Aug -2.2 21:42:31 10° WNW 21:45:26 27° SW 21:46:57 19° S visible
03 Aug -3.0 20:55:01 10° WNW 20:58:16 47° SW 21:01:31 10° SSE visible
05 Aug -1.2 20:58:08 10° W 21:00:18 16° SW 21:02:27 10° S visible
